Camp Pendleton, CA

2:43 AM PDT on June 29, 2017 (GMT -0700)
Camp Pendleton Marine Corps Air Station

Weather History for KNFG - December, 2013

Change the Weather History Date:

Wednesday, December 25, 2013

  Actual Average Record
Temperature  
Mean Temperature 62 °F -  
Max Temperature 86 °F 65 °F 86 °F (2013)
Min Temperature 37 °F 36 °F 26 °F (1998)
Degree Days  
Heating Degree Days 4    
Growing Degree Days 12 (Base 50)    
Moisture  
Dew Point 22 °F    
Average Humidity 28    
Maximum Humidity 82    
Minimum Humidity 6    
Precipitation  
Precipitation 0.00 in - - ()
Sea Level Pressure  
Sea Level Pressure 30.13 in    
Wind  
Wind Speed 5 mph (NE)    
Max Wind Speed 13 mph    
Max Gust Speed 21 mph    
Visibility 10 miles    
Events      
Averages and records for this station are not official NWS values.
T = Trace of Precipitation, MM = Missing Value Source: NWS Daily Summary

Daily Weather History Graph

Daily Weather History Graph

Search for Another Location

Airport or City:

Trip Planner

Search our weather history database for the weather conditions in past years. The results will help you decide how hot, cold, wet, or windy it might be!

Date:

Astronomy

Dec. 25, 2013 Rise Set
Actual Time 6:51 AM PST 4:48 PM PST
Civil Twilight 6:23 AM PST 5:15 PM PST
Nautical Twilight 5:52 AM PST 5:46 PM PST
Astronomical Twilight 5:22 AM PST 6:17 PM PST
Moon No Moon Rise 11:39 AM PST (12/25)
Length of Visible Light 10h 52m
Length of Day
9h 57m
Waning Gibbous, 47% of the Moon is Illuminated
Dec 25
Waning Gibbous
Jan 1
New
Jan 7
First Quarter
Jan 15
Full
Jan 23
Last Quarter

Hourly Weather History & Observations

Time (PST) Temp. Windchill Dew Point Humidity Pressure Visibility Wind Dir Wind Speed Gust Speed Precip Events Conditions
12:54 AM 37.9 °F 35.5 °F 32.0 °F 79% 30.16 in 10.0 mi East 3.5 mph - N/A   Clear
1:54 AM 37.0 °F - 32.0 °F 82% 30.16 in 10.0 mi Calm Calm - N/A   Clear
2:54 AM 37.0 °F - 32.0 °F 82% 30.15 in 10.0 mi Calm Calm - N/A   Clear
3:54 AM 51.1 °F - 30.9 °F 46% 30.13 in 10.0 mi WSW 4.6 mph - N/A   Clear
4:25 AM - - - N/A% - - North - - N/A   Unknown
4:54 AM 66.0 °F - 28.0 °F 24% 30.14 in 10.0 mi NE 10.4 mph - N/A   Clear
5:54 AM 62.1 °F - 28.0 °F 28% 30.14 in 10.0 mi NE 5.8 mph - N/A   Clear
6:54 AM 68.0 °F - 24.1 °F 19% 30.15 in 10.0 mi NNE 11.5 mph 20.7 mph N/A   Clear
7:54 AM 66.9 °F - 24.1 °F 20% 30.17 in 10.0 mi ENE 11.5 mph - N/A   Clear
8:54 AM 73.0 °F - 23.0 °F 15% 30.17 in 10.0 mi NE 9.2 mph - N/A   Clear
9:54 AM 75.9 °F - 21.0 °F 13% 30.17 in 10.0 mi NNE 11.5 mph 19.6 mph N/A   Clear
10:54 AM 80.1 °F - 19.0 °F 10% 30.16 in 10.0 mi NNE 11.5 mph 17.3 mph N/A   Clear
11:54 AM 82.9 °F - 19.0 °F 9% 30.12 in 10.0 mi ENE 9.2 mph - N/A   Clear
12:54 PM 84.0 °F - 14.0 °F 7% 30.08 in 10.0 mi NNE 6.9 mph - N/A   Clear
1:54 PM 86.0 °F - 10.0 °F 6% 30.06 in 10.0 mi NNE 12.7 mph 17.3 mph N/A   Clear
2:00 PM - - - N/A% - - North - - N/A   Unknown
2:54 PM 84.0 °F - 8.1 °F 6% 30.07 in 10.0 mi North 9.2 mph - N/A   Clear
3:54 PM 82.0 °F - 8.1 °F 6% 30.08 in 10.0 mi NNE 3.5 mph - N/A   Clear
4:54 PM 69.1 °F - 24.1 °F 18% 30.09 in 10.0 mi Calm Calm - N/A   Clear
5:54 PM 57.9 °F - 39.0 °F 49% 30.11 in 10.0 mi West 3.5 mph - N/A   Clear
6:54 PM 53.1 °F - 35.1 °F 50% 30.12 in 10.0 mi Calm Calm - N/A   Clear
7:54 PM 55.9 °F - 24.1 °F 29% 30.13 in 10.0 mi NE 4.6 mph - N/A   Clear
8:54 PM 64.9 °F - 15.1 °F 15% 30.14 in 10.0 mi ENE 5.8 mph - N/A   Clear
9:54 PM 57.0 °F - 17.1 °F 21% 30.14 in 10.0 mi ENE 3.5 mph - N/A   Clear
10:54 PM 64.0 °F - 10.9 °F 13% 30.14 in 10.0 mi NE 6.9 mph - N/A   Clear
11:54 PM 48.0 °F - 18.0 °F 30% 30.14 in 10.0 mi Calm Calm - N/A   Clear